Location: Bottenau
(48.5138°N, 8.0462°E)
Time: 19:52:43
(UTC+00:00)

Cosmos 1634 Rocket - Pass Details

Date: 18 April 2021
Orbit: 959 x 993 km, 82.9° (Epoch: 17 May)

Event Time Altitude Azimuth Distance (km) Brightness Sun altitude
Rises 19:58:05 0° 193° (SSW) 3,684 6.8 -14.7°
Reaches altitude 10° 20:00:37 10° 196° (SSW) 2,736 6.1 -15.0°
Maximum altitude 20:06:53 73° 281° (W) 1,027 4.3 -15.8°
Drops below altitude 10° 20:13:09 10° 6° (N) 2,730 6.8 -16.6°
Sets 20:15:40 0° 8° (N) 3,677 7.5 -17.0°
